Other Public Products
Issued by NWS Charleston, SC

Current Version | Previous Version | Graphics & Text | Print | Product List | Glossary On
Versions: 1 2 3 4 5 6 7 8 9 10 11 12 13 14 15 16 17 18 19 20 21 22 23 24 25 26 27 28 29 30 31 32 33 34 35 36 37 38 39 40 41 42 43 44 45 46 47 48 49 50
000
FPUS82 KCHS 230812
OPUCHS

TEST...KCHS/KSAV Gateway Observations...TEST
National Weather Service Charleston SC
300 AM EST FRI FEB 23 2018

NOTE: "fair" indicates few or no clouds below 12,000 feet with no
significant weather and/or obstructions to visibility.

SCZ050-WAZ558-NCZ071-TXZ119-213-PAZ071-DCZ001-FLZ074-172-MI076-
NYZ176-178-MAZ016-IL014-TNZ027-NJZ106-GAZ044-MD014-230900-

...Gateway Observations for Charleston International...

CITY           SKY/WX    TMP DP  RH WIND       PRES   REMARKS
Chas Airport   FAIR      60  59  96 CALM      30.41F
Seattle        CLEAR     27  19  72 SE8       30.43R WCI  19
Charlotte      FAIR      60  59  96 SE3       30.41S
Dallas DFW     CLOUDY    41  37  86 CALM      30.24R THUNDER
Dallas Love    TSTM      41  38  89 CALM      30.24F
Philladelphia  CLOUDY    38  35  89 E10G18    30.62S WCI  31
Wash National  CLOUDY    42  38  85 E8        30.59S
Baltimore      LGT RAIN  40  40 100 NE9       30.59S FOG     WCI  34
Miami          CLOUDY    75  66  73 E12       30.29S
Detroit        CLOUDY    35  32  88 E9        30.38F WCI  28
Newark         CLOUDY    37  33  85 NE9       30.65F WCI  30
Laguardia      CLOUDY    37  32  82 E12       30.64F WCI  29
J F K          CLOUDY    36  34  92 NE12      30.65F WCI  28
Boston Logan   CLOUDY    33  30  88 NW8       30.72R WCI  26
Ft. Lauderdale MOCLDY    75  70  84 E13       30.28F
Chicago O`Hare CLOUDY    39  37  92 SE9       30.18F FOG     WCI  33
Chicago Midway CLOUDY    40  38  93 SE12      30.20F FOG     WCI  33
Houston Bush   FOG       58  58 100 NW6       30.22R VSB 1/8
Houston Hobby  MOCLDY    65  65 100 W3        30.20R FOG
Nashville      FAIR      57  56  96 VRB3      30.26F
Atlanta        FAIR      63  61  93 E3        30.38S

$$

GAZ044-118-TXZ119-213-NCZ071-DCZ001-MDZ014-506-PAZ021-071-NJZ106-
NYZ176-178-MAZ106-OHZ011-021-055-MIZ076-KYZ091-ILZ014-INZ047-
MNZ060-ONZ431-230900-

...Gateway Observations for Savannah International...

CITY           SKY/WX    TMP DP  RH WIND       PRES   REMARKS
Savannah Arpt  FOG       58  58 100 CALM      30.41S VSB 1/2
Atlanta        FAIR      63  61  93 E3        30.38S
Charlotte      FAIR      60  59  96 SE3       30.41S
Dallas DFW     CLOUDY    41  37  86 CALM      30.24R THUNDER
Houston Bush   FOG       58  58 100 NW6       30.22R VSB 1/8
Wash National  CLOUDY    42  38  85 E8        30.59S
Wash Dulles    CLOUDY    40  40 100 E5        30.58R FOG     WCI  37
Baltimore      LGT RAIN  40  40 100 NE9       30.59S FOG     WCI  34
Philadelphia   CLOUDY    38  35  89 E10G18    30.62S WCI  31
Newark         CLOUDY    37  33  85 NE9       30.65F WCI  30
Laguardia      CLOUDY    37  32  82 E12       30.64F WCI  29
J F K          CLOUDY    36  34  92 NE12      30.65F WCI  28
Boston         CLOUDY    33  30  88 NW8       30.72R WCI  26
Pittsburg      CLOUDY    41  40  96 SE6       30.37F
Akron          FOG       41  39  93 SE8       30.34F VSB 3/4
Cleveland      CLOUDY    40  37  89 E6        30.37F WCI  36
Cincinnati     LGT RAIN  46  46 100 E5        30.30F VSB 1/2
Columbus       CLOUDY    42  42 100 E3        30.32F FOG
Detroit        CLOUDY    35  32  88 E9        30.38F WCI  28
Chicago O`Hare CLOUDY    39  37  92 SE9       30.18F FOG     WCI  33
Minneapolis    LGT SNOW  26  26 100 E7        30.10F FOG     WCI  18
Indianapolis   CLOUDY    44  44 100 SE9       30.23F FOG
Toronto Canada CLOUDY    30  23  74 E10       30.51F WCI  21

$$




USA.gov is the U.S. government's official web portal to all federal, state and local government web resources and services.